Jackpot

Texas Poker Multi Jackpot System

Kini Telah hadir Jackpot SUPER ROYAL FLUSH

Kini Telah hadir Jackpot 2000 (khusus table VIP keatas).

Ikutilah global jackpot yang tersedia di system kami, dengan system jackpot terbaru dan pertama di indonesia, anda dapat membeli jackpot dengan harga 100 rupiah saja dan menangkan hadiahnya hingga puluhan juta rupiah.

Jackpot bukanlah suatu keharusan untuk dibeli, namun kami memberikan suatu fitur tambahan untuk member tercinta dari www.qqpokerwin.com.

Terdapat tiga pilihan harga jackpot yang bisa anda beli yaitu :100,500,1000 dan 2000(khusus table VIP Keatas) rupiah.

Hadiah dari Multi jackpot system www.qqpokerwin.com

  1. full house x 10 harga jackpot yang anda beli.
      (contoh:anda membeli 1000 maka:1000 X10 = 10.000)
  2. four of kind x 250 harga jackpot yang anda beli
      (contoh:anda membeli 1000 maka:1000 X250 = 250.000)
  3. Straight flush x 1200
      (contoh:anda membeli 1000 maka:1000 X1200 = 1.200.000)
  4. Royal flush x 10000 harga jackpot yang anda beli
      (contoh:anda membeli 1000 maka:1000 X10000 = 10.000.000)
  5. SUPER ROYAL FLUSH x 30000 harga jackpot yang anda beli
      (contoh:anda membeli 1000 maka:1000 X30000 = 30.000.000)

Kondisi kartu

  1. full house adalah kondisi kartu dimana kartu anda dan kartu tengah dengan total 7 kartu bisa mendapatkan nilai 5 kartu dengan kombinasi 1 tris(three of kind) dan 1 pair, contoh 3 kartu 10 dan 2 kartu 5
  2. Four of kind adalah kondisi kartu dimana kartu anda dan kartu tengah dengan total 7 kartu bisa mendapatkan nilai 5 kartu dengan kombinasi 4 kartu yang sama jumlah dan 1 kartu apapun juga contoh anda mendapatkan 4 buah kartu angka 3 dan 1 kartu apapun.
  3. Staright flush adalah kondisi kartu dimana kartu anda dan kartu tengah dengan total 7 kartu bisa mendapatkan nilai 5 kartu dengan kombinasi seri / staright dengan kembang yang sama contoh : urutan kartu dari angka 5, 6, 7, 8 , 9 10 dengan kembang yg sama misalnya as hati
  4. Royal flush adalah kondisi kartu dimana kartu anda dan kartu tengah dengan total 7 kartu bisa mendapatkan nilai 5 kartu dengan kombinasi seri / staright dengan kembang yang sama tetapi kartu tersebut haruslah dimulai dari 10. contoh 10, Queen, Jack, King dan aces dengan kembang yang sama
  5. Super Royal flush adalah kondisi kartu dimana Kedua kartu anda digabung dengan 3 kartu pertama meja haruslah royal flush. contoh kartu anda 10,Queen kembang sama dan 3 kartu pertama meja adalah Jack, King dan aces dengan kembang yang sama

Demikian adalah penjelasan dari Multi Jackpot www.qqpokerwin.com terima kasih dan selamat bermain salam hoki dari kami

Texas Poker Jackpot Winner

TOP SUPER ROYAL FLUSH
No.TanggalNamaPriceWin
123/01 14:46PLERKINGSuper Royal flush30,000,000
223/01 13:14DIDU234Super Royal flush15,000,000
323/01 10:04H4S1LAASuper Royal flush15,000,000
423/01 06:41YASA9090Super Royal flush6,000,000
523/01 06:22D10EFC15Super Royal flush1,500,000
TOP ROYAL FLUSH
No.TanggalNamaPriceWin
123/01 16:39BURRUTRoyal flush5,000,000
223/01 16:36BNHKLH12Royal flush2,000,000
323/01 16:33MANDA509Royal flush5,000,000
423/01 16:33TOMBUS2Royal flush2,000,000
523/01 16:28KUTIK90Royal flush10,000,000
TOP STRAIGHT FLUSH
No.TanggalNamaPriceWin
123/01 16:48ZINGAH12Straight Flush600,000
223/01 16:43AADDAXXD32Straight Flush600,000
323/01 16:42F4CAF274Straight Flush600,000
423/01 16:41L1N64UStraight Flush240,000
523/01 16:41KUBIL66Straight Flush600,000
LATEST JACKPOT
No.TanggalNamaPriceWin
123/01 16:48FATIHAJI18Full House2,000
223/01 16:48AEPSMFull House1,000
323/01 16:48BIEANDBIEFull House5,000
423/01 16:48B32A0DADFull House1,000
523/01 16:48JUEYEFull House1,000
623/01 16:48ZINGAH12Straight Flush600,000
723/01 16:48LIA_2177Full House2,000
823/01 16:48OSCDT6V7C7Full House2,000
923/01 16:48DIDU234Full House5,000
1023/01 16:48DEAR110859Full House10,000
1123/01 16:48RYYAN32Full House5,000
1223/01 16:48UDHA45Full House20,000
1323/01 16:48ROCKI68Full House1,000
1423/01 16:48SHOFIERAFull House2,000
1523/01 16:48DANPRAKOSOFull House5,000
1623/01 16:48ASYIKJPWAEFull House5,000
1723/01 16:48MLM_JUMATFull House10,000
1823/01 16:48DIRS306Full House5,000
1923/01 16:48RIIE88Full House5,000
2023/01 16:48B4134Y0Full House2,000
2123/01 16:48BA66CD40Full House1,000
2223/01 16:48POKOKETOPFull House5,000
2323/01 16:48DERIAJA47Full House5,000
2423/01 16:48BOSMINNNFull House5,000
2523/01 16:48MUTMUT24Four Of A Kind25,000
2623/01 16:48JANUNFull House2,000
2723/01 16:48KANO81Full House2,000
2823/01 16:48RIKIIY1Full House2,000
2923/01 16:48KHOZIMFull House2,000
3023/01 16:48AD0M_99Full House2,000
3123/01 16:48LASOGI777Full House2,000
3223/01 16:47BUTO432Full House2,000
3323/01 16:47DIN743Full House2,000
3423/01 16:47EISZAFour Of A Kind125,000
3523/01 16:47WADAK29Full House1,000
3623/01 16:47IDNGENO86Four Of A Kind25,000
3723/01 16:47MAKKARAJA7Full House1,000
3823/01 16:47VIOLENCE66Full House5,000
3923/01 16:47STRAVFull House1,000
4023/01 16:47BERASJPSFull House1,000
4123/01 16:47USTDFull House5,000
4223/01 16:47TEMPEBAUK2Full House2,000
4323/01 16:47ZHR69Full House1,000
4423/01 16:47FAKYUALLFull House2,000
4523/01 16:47RYANJAYA46Full House2,000
4623/01 16:47OPOOOOOOORFull House2,000
4723/01 16:47MALDINI_88Full House1,000
4823/01 16:47RO_BIFull House5,000
4923/01 16:47BA291AE9Full House2,000
5023/01 16:47EWIS44Four Of A Kind50,000

Domino Multi Jackpot System

Ikutilah global jackpot yang tersedia di system kami, dengan system jackpot terbaru dan pertama di indonesia, anda dapat membeli jackpot dengan harga 100 rupiah saja dan menangkan hadiahnya hingga puluhan juta rupiah.

Jackpot bukanlah suatu keharusan untuk dibeli, namun kami memberikan suatu fitur tambahan untuk member tercinta dari www.qqpokerwin.com.

Terdapat tiga pilihan harga jackpot yang bisa anda beli yaitu :100,500 dan 1000 rupiah.

Hadiah dari Multi jackpot system www.qqpokerwin.com

  1. Murni Kecil x 50 harga jackpot yang anda beli.
      (contoh:anda membeli 1000 maka:1000 X 50 = 50.000)
  2. Murni Besar x 50 harga jackpot yang anda beli
      (contoh:anda membeli 1000 maka:1000 X 50 = 50.000)
  3. BALAK x 100 harga jackpot yang anda beli
      (contoh:anda membeli 1000 maka:1000 X 100 = 100.000)
  4. ENAM DEWA x 6666 harga jackpot yang anda beli
      (contoh:anda membeli 1000 maka:1000 X 6666 = 6.666.000)

Demikian adalah penjelasan dari Multi Jackpot www.qqpokerwin.com terima kasih dan selamat bermain salam hoki dari kami

Domino Jackpot Winner

TOP ENAM DEWA
No.TanggalNamaPriceWin
123/01 16:07KELU88murni enam6,666,000
223/01 14:30OWBJYVFLOLmurni enam666,600
323/01 14:26DENAI88murni enam6,666,000
423/01 10:28ISALRUKITmurni enam3,333,000
523/01 09:49A98F8AFEmurni enam6,666,000
TOP BALAK
No.TanggalNamaPriceWin
123/01 16:44KINAGA88balak100,000
223/01 16:38SELO21balak100,000
323/01 16:34ZIAD014balak100,000
423/01 16:32QS65FMICYRbalak10,000
523/01 16:26T0012021balak10,000
LATEST JACKPOT
No.TanggalNamaPriceWin
123/01 16:47PKPT21murni besar25,000
223/01 16:47RAYAPPmurni besar50,000
323/01 16:47BRANXKASmurni besar50,000
423/01 16:47E1A5532Dmurni kecil5,000
523/01 16:46ANAM1712murni kecil50,000
623/01 16:45KATROOK_22murni kecil50,000
723/01 16:45S47040murni besar25,000
823/01 16:45EF5B0C6Emurni besar5,000
923/01 16:45LB883710murni besar50,000
1023/01 16:44DIKMABA99murni kecil50,000
1123/01 16:44KINAGA88balak100,000
1223/01 16:44C1T4T4murni kecil25,000
1323/01 16:44GAPLEH8080murni besar50,000
1423/01 16:43LONG1993murni besar5,000
1523/01 16:43RABIYAHmurni besar5,000
1623/01 16:42TATA6869murni besar25,000
1723/01 16:41SHYPUGRZIXmurni besar5,000
1823/01 16:40TUYOOOK9murni besar25,000
1923/01 16:39KABEL_20murni kecil25,000
2023/01 16:38FRVmurni besar5,000
2123/01 16:38ARYAHOKI99murni besar25,000
2223/01 16:38SELO21balak100,000
2323/01 16:37MNDAmurni kecil50,000
2423/01 16:36TELER66murni kecil25,000
2523/01 16:36IMA0910murni kecil50,000
2623/01 16:36HORNETmurni besar25,000
2723/01 16:36MASHARJOmurni kecil25,000
2823/01 16:35RONZ1murni kecil5,000
2923/01 16:34MICAN15murni besar25,000
3023/01 16:34IGU15murni besar50,000
3123/01 16:34ZIAD014balak100,000
3223/01 16:33MICAN15murni besar25,000
3323/01 16:32XA44EL39Z2murni besar50,000
3423/01 16:32COOLC4Zmurni besar25,000
3523/01 16:32KHANIYYAmurni besar5,000
3623/01 16:32QS65FMICYRbalak10,000
3723/01 16:31Z4W1Rmurni kecil25,000
3823/01 16:30SDAWETTTmurni kecil50,000
3923/01 16:30B3AS8DFS6Elucky992,500
4023/01 16:30UEDANmurni besar25,000
4123/01 16:30RABIYAHmurni kecil5,000
4223/01 16:30SALEM121murni besar50,000
4323/01 16:29KIO1murni kecil5,000
4423/01 16:29T4D0014944murni besar5,000
4523/01 16:29OPOV555murni besar50,000
4623/01 16:27MASHARJOlucky9910,000
4723/01 16:26T0012021balak10,000
4823/01 16:26VHY86murni besar50,000
4923/01 16:26BUAYA6X4murni kecil50,000
5023/01 16:26ABICOLImurni besar50,000

Ceme Multi Jackpot System

Jackpot dilihat dari gabungan kartu pemain dengan kartu bandar. Bandar harus membeli jackpot sebanyak jumlah player yang sedang duduk. Sebagai contoh bila terdapat 3 pemain duduk bermain, dan bandar memutuskan untuk membeli jackpot Rp 1.000, maka pada periode tersebut bandar akan membeli jackpot sebanyak 3xRp1.000 = Rp3.000.

Jackpot bukanlah suatu keharusan untuk dibeli, namun kami memberikan suatu fitur tambahan untuk member tercinta dari www.qqpokerwin.com.

Terdapat tiga pilihan harga jackpot yang bisa anda beli yaitu :100,500 dan 1000 rupiah.

Hadiah dari Multi jackpot system www.qqpokerwin.com

  1. Murni Kecil x 50 harga jackpot yang anda beli.
      (contoh:anda membeli 1000 maka:1000 X 50 = 50.000)
  2. Murni Besar x 50 harga jackpot yang anda beli
      (contoh:anda membeli 1000 maka:1000 X 50 = 50.000)
  3. BALAK x 200 harga jackpot yang anda beli
      (contoh:anda membeli 1000 maka:1000 X 200 = 200.000)
  4. ENAM DEWA x 6666 harga jackpot yang anda beli
      (contoh:anda membeli 1000 maka:1000 X 6666 = 6.666.000)

Demikian adalah penjelasan dari Multi Jackpot www.qqpokerwin.com terima kasih dan selamat bermain salam hoki dari kami

Ceme Jackpot Winner

TOP ENAM DEWA
No.TanggalNamaPriceWin
123/01 16:38NOTKKmurni enam666,600
223/01 16:25D1867murni enam6,666,000
323/01 16:25F1TRA1111murni enam6,666,000
423/01 16:24HETTYPEREZmurni enam666,600
523/01 16:18CIT4NNNmurni enam6,666,000
TOP BALAK
No.TanggalNamaPriceWin
123/01 16:48GREMORIbalak200,000
223/01 16:47PAI99balak100,000
323/01 16:47BONYOK31balak200,000
423/01 16:46CIVIL89balak200,000
523/01 16:46KAOSKAKI23balak200,000
LATEST JACKPOT
No.TanggalNamaPriceWin
123/01 16:48KALLANG002murni besar5,000
223/01 16:48ZILLO12murni kecil50,000
323/01 16:48SUZURAN77murni kecil25,000
423/01 16:48DUTTA105murni kecil5,000
523/01 16:48GREMORIbalak200,000
623/01 16:48KURUNB19murni besar25,000
723/01 16:48NJES21murni besar50,000
823/01 16:47UDAGCURUGmurni besar50,000
923/01 16:47AAG99murni besar50,000
1023/01 16:47KUTI6666murni kecil50,000
1123/01 16:47TTGEDE2murni besar25,000
1223/01 16:47OPI99murni kecil50,000
1323/01 16:47STEVANIIImurni kecil5,000
1423/01 16:47PAI99balak100,000
1523/01 16:47BONYOK31balak200,000
1623/01 16:47CDE3A818murni kecil50,000
1723/01 16:47KEKAL12murni kecil5,000
1823/01 16:46IDCPO171108murni kecil25,000
1923/01 16:46FAOJANDmurni kecil5,000
2023/01 16:46CEPOK205murni kecil50,000
2123/01 16:46IPUNK193murni besar5,000
2223/01 16:46CIVIL89balak200,000
2323/01 16:46KAOSKAKI23balak200,000
2423/01 16:46ZAHRAN369murni kecil50,000
2523/01 16:46NOTKKmurni kecil5,000
2623/01 16:45JIBRUTLOmurni kecil50,000
2723/01 16:45RENATA1985murni kecil50,000
2823/01 16:45JJ1ER1murni kecil50,000
2923/01 16:45GEORG99murni kecil50,000
3023/01 16:45BANDEL004murni kecil5,000
3123/01 16:45DPTTDEDImurni kecil25,000
3223/01 16:45BABYJOEmurni kecil5,000
3323/01 16:45AMELIASISmurni besar50,000
3423/01 16:45DHIZA88murni kecil5,000
3523/01 16:45OOPS222murni kecil50,000
3623/01 16:45ANDRA212murni kecil25,000
3723/01 16:45L4DUmurni kecil50,000
3823/01 16:44THOMS12murni besar5,000
3923/01 16:44APRILIA292murni besar5,000
4023/01 16:44D979F540murni kecil50,000
4123/01 16:44MAMBA777murni kecil50,000
4223/01 16:44CUNSTHEAmurni besar50,000
4323/01 16:44KUTI6666balak200,000
4423/01 16:44SHIDIQ11balak200,000
4523/01 16:44RENITA72balak100,000
4623/01 16:44MUNDBUP2EWbalak200,000
4723/01 16:44AYY1RH46OLbalak100,000
4823/01 16:44TRIYANTO80murni kecil50,000
4923/01 16:44MUKIDIbalak20,000
5023/01 16:4441715murni besar5,000